sat.trackr.live / text

‹ back to catalog

STARLINK-4437

NORAD 53506 · 2022-099AT

PAYLOAD ACTIVE UNKNOWN

§ Identity

Operator
Country
US
Launch date
2022-08-12
Launch site
AFWTR
Launch vehicle
Mass (kg)
RCS (m²)

Purposes: comms

External: N2YO · Heavens-Above · Gunter

§ Orbital elements

Epoch: 2026-05-25T04:00:03.998880Z

Period
93.20 min
Inclination
97.6031°
Eccentricity
0.0001463
Mean motion
15.45008242 rev/d
Perigee alt
430.4 km
Apogee alt
432.4 km
Semi-major
6,809.5 km
B*
1.1673e-2
RAAN
268.4434°
Arg perigee
74.6427°
Mean anomaly
131.5684°
Rev number
587

§ Raw data

STARLINK-44371 53506U 22099AT  26145.16671295  .00593749  00000+0  11673-1 0  99912 53506  97.6031 268.4434 0001463  74.6427 131.5684 15.45008242  5871

JSON: /api/v1/satellites/53506 · /tle

For live sub-satellite position, see the globe view (requires WebGL).

§ Visibility from observer

Set your observer location to see the next 7 days of passes ≥ 10°. The values pass through the URL so the page stays shareable.

No JS? Fill the form by hand. The geolocation button needs JavaScript.